Cloud_Cover
88 100 100 100 100 100 100 100 100 100 94 5 100 94 72 42 5 5 5 5 5 5 7 97 5 2 0 0 0 0 0 0 67 100 100 100 100 100 77 64 82 19 1 8
100 100 100 100 100 100 100 100 100 100 100 36 99 100 73 59 5 69 5 5 36 54 9 52 50 13 5 0 0 0 0 0 0 0 0 1 3 31 11 28 95 51 22 35
100 100 100 100 100 100 100 100 100 100 100 82 100 100 100 99 7 5 5 7 6 100 62 9 94 28 6 3 0 0 0 0 0 0 0 3 5 4 12 11 100 84 15 31
100 100 100 91 100 100 15 100 100 100 100 48 44 11 100 99 98 2 5 23 15 51 100 33 97 38 37 5 5 1 0 0 0 0 0 0 1 3 22 28 22 9 26 13
100 88 37 82 100 100 30 77 31 23 81 94 97 66 54 5 94 92 0 3 5 16 100 55 99 98 5 5 5 5 1 0 0 0 0 0 0 4 30 43 17 10 22 38
5 1 0 2 63 100 100 100 100 100 68 4 2 100 0 10 25 100 5 3 0 45 100 100 100 100 89 56 5 5 2 0 0 0 0 0 4 16 13 24 20 21 88 94
0 0 0 4 5 88 100 100 100 80 91 35 89 49 0 56 5 100 100 11 17 99 100 100 100 100 100 100 35 14 11 2 3 0 0 7 14 13 30 23 29 100 94 99
74 3 15 95 26 69 98 100 100 95 26 83 91 12 20 90 70 94 100 9 76 100 100 100 100 100 100 100 45 45 96 54 38 63 87 90 59 87 98 88 99 100 100 98
100 35 68 93 75 24 13 100 36 100 92 86 15 25 5 100 100 100 100 100 100 100 100 100 100 100 100 100 100 100 100 100 100 100 83 94 100 100 100 100 100 100 88 100
100 69 31 100 90 26 87 57 100 100 97 68 19 90 6 47 89 100 100 100 100 100 100 100 100 100 100 100 100 100 100 55 46 45 31 52 98 100 68 77 70 46 94 99
5 61 3 100 100 100 100 100 93 34 100 43 95 98 100 94 100 100 100 100 100 100 100 100 100 100 100 100 100 100 100 100 85 93 66 94 100 100 78 31 42 57 66 100
4 27 4 5 11 64 73 100 88 100 87 30 5 100 100 66 100 100 100 100 100 100 100 100 100 97 100 100 100 85 82 100 84 100 85 100 100 93 53 91 97 100 100 98
79 21 60 3 1 0 97 100 100 100 100 99 100 62 47 9 100 100 100 100 100 100 100 100 100 100 100 100 100 100 100 100 85 78 51 85 100 100 92 99 100 98 94 68
79 100 100 89 67 53 98 100 100 100 100 100 100 98 100 82 60 100 100 100 100 100 100 100 100 100 100 100 100 100 100 99 82 53 92 100 86 96 100 100 84 77 100 100
97 97 100 100 100 50 96 99 100 92 100 99 100 100 100 100 72 100 100 100 100 100 100 100 100 100 100 100 100 100 100 100 86 88 92 97 100 100 100 99 70 100 100 100
100 63 100 100 72 100 72 24 100 100 100 96 100 100 100 100 93 100 100 100 100 100 100 100 100 100 100 100 100 100 100 90 99 100 96 70 95 100 96 98 100 100 100 100
78 58 100 95 96 100 100 12 2 91 100 91 76 100 100 96 100 100 100 100 100 100 100 100 100 100 100 100 100 100 100 100 100 98 98 59 100 100 84 100 100 100 100 100
100 100 97 77 100 100 18 45 5 8 99 32 56 100 100 100 100 100 100 100 100 100 100 100 100 100 100 100 100 100 100 78 100 92 86 64 100 98 87 100 100 100 100 100
100 100 100 100 100 90 42 3 99 98 83 35 100 100 100 100 100 100 100 100 100 100 100 100 100 100 100 100 100 100 100 100 100 100 99 100 100 100 100 100 100 100 100 100
100 98 100 100 100 94 62 100 30 100 98 47 90 100 100 100 100 100 100 100 100 100 100 100 100 100 100 100 100 100 100 100 100 100 100 100 100 100 100 100 100 100 100 100
100 100 100 100 100 26 100 100 100 95 75 24 93 100 84 94 100 100 100 100 100 100 100 100 100 100 100 100 100 100 100 100 100 100 100 100 100 100 100 100 100 100 100 100
100 100 100 100 100 78 100 100 100 100 53 82 99 100 79 100 100 100 100 100 100 100 100 100 100 100 100 100 100 100 100 100 100 100 100 100 100 100 100 100 100 100 100 98
99 100 99 97 100 100 100 100 100 66 20 1 41 100 97 95 100 100 100 100 100 100 100 100 100 100 100 100 100 100 100 100 100 100 100 100 100 79 84 100 100 100 47 25
100 81 63 99 89 100 100 100 100 65 5 1 0 15 100 92 100 100 100 100 100 100 100 100 100 100 100 100 100 100 100 100 100 100 100 100 100 34 76 76 56 46 25 0
100 90 86 83 100 100 100 100 100 59 2 1 0 0 37 6 99 88 100 100 100 100 100 100 100 100 100 100 100 100 100 100 100 100 100 100 96 79 68 33 5 4 0 0
100 66 100 95 100 100 100 100 100 17 5 5 1 0 0 2 61 95 100 100 100 100 100 100 100 100 100 100 100 100 100 100 100 100 100 100 100 94 64 7 5 5 2 3